Weather reports worldwide

Advertisment
Guernsey, United Kingdom (3894): temperature & dewpoint: 12.06.2019 03:00:00 - 18.06.2019 03:00:00 (BST)Guernsey, United Kingdom (3894): temperature -20cm & temperature -100cm: 12.06.2019 03:00:00 - 18.06.2019 03:00:00 (BST)Guernsey, United Kingdom (3894): wind speed & gusts: 12.06.2019 03:00:00 - 18.06.2019 03:00:00 (BST)Guernsey, United Kingdom (3894): wind direction: 12.06.2019 03:00:00 - 18.06.2019 03:00:00 (BST)Guernsey, United Kingdom (3894): reduced air pressure: 12.06.2019 03:00:00 - 18.06.2019 03:00:00 (BST)Guernsey, United Kingdom (3894): visibility: 12.06.2019 03:00:00 - 18.06.2019 03:00:00 (BST)Guernsey, United Kingdom (3894): precipitation: 12.06.2019 03:00:00 - 18.06.2019 03:00:00 (BST)
Date & Time tt [°C] td [°C] tt -20cm [°C] tt -100cm [°C] ff [km/h] ff [kn] fx [km/h] fx [kn] dd ppp [hPa] vv [km] rr [mm]
18.06.2019 03:00:00 12,3 11,4 - - 28 15 - - E 1015,7 45 -
18.06.2019 02:00:00 12,6 11,2 - - 4 2 - - ENE 1016,5 10 -
18.06.2019 01:00:00 12,8 10,3 - - 8 4 - - NE 1016,9 10 0,0
18.06.2019 00:00:00 13,0 9,6 - - 8 4 - - NE 1017,1 10 -
17.06.2019 23:00:00 12,9 10,1 - - 5 3 - - NE 1017,5 10 -
17.06.2019 22:00:00 13,3 9,7 - - 5 3 - - N 1017,8 10 -
17.06.2019 21:00:00 15,2 10,2 - - 5 3 - - NNE 1017,3 45 -
17.06.2019 20:00:00 16,6 9,9 - - 5 3 - - - 1017,3 10 -
17.06.2019 19:00:00 17,3 9,9 - - 4 2 - - NNE 1017,3 45 0,0
17.06.2019 18:00:00 16,0 10,2 - - 8 4 - - N 1017,8 45 -
17.06.2019 17:00:00 17,0 10,5 - - 9 5 - - N 1018,2 10 -
17.06.2019 16:00:00 17,2 9,4 - - 9 5 - - SSE 1018,4 10 -
17.06.2019 15:00:00 16,8 9,9 - - 11 6 - - SE 1018,7 10 -
17.06.2019 14:00:00 16,4 11,8 - - 11 6 - - SSE 1019,1 10 -
17.06.2019 13:00:00 16,2 11,5 - - 11 6 - - S 1019,2 40 0,0
17.06.2019 12:00:00 16,2 11,8 - - 13 7 - - S 1019,3 35 -
17.06.2019 11:00:00 15,3 12,2 - - 13 7 - - S 1019,6 10 -
17.06.2019 10:00:00 14,7 12,1 16,4 14,9 16 9 - - S 1019,4 10 -
17.06.2019 09:00:00 14,2 12,1 - - 16 9 - - SW 1019,7 10 -
17.06.2019 08:00:00 13,4 12,2 - - 15 8 - - SW 1019,7 10 -
17.06.2019 07:00:00 12,9 12,0 - - 16 9 - - SW 1019,5 10 0,0
17.06.2019 06:00:00 12,5 11,7 - - 15 8 - - SW 1019,4 10 -
17.06.2019 05:00:00 12,2 11,4 - - 18 10 - - SW 1019,1 30 -
17.06.2019 04:00:00 12,3 11,3 - - 16 9 - - WSW 1019,2 10 -
17.06.2019 03:00:00 12,0 11,0 - - 11 6 - - SW 1019,4 40 -
17.06.2019 02:00:00 12,1 11,4 - - 13 7 - - S 1019,6 10 -
17.06.2019 01:00:00 12,2 11,0 - - 11 6 - - SSW 1019,7 10 0,0
17.06.2019 00:00:00 12,6 11,1 - - 9 5 - - SSW 1019,9 40 -
16.06.2019 23:00:00 13,4 11,5 - - 9 5 - - SSW 1020,1 10 -
16.06.2019 22:00:00 13,8 12,3 - - 8 4 - - SSW 1020,1 10 -
16.06.2019 21:00:00 14,3 12,3 - - 8 4 - - SSW 1019,8 40 -
16.06.2019 20:00:00 14,7 12,6 - - 9 5 - - SSW 1019,7 40 -
16.06.2019 19:00:00 15,0 12,8 - - 11 6 - - S 1019,4 10 -
16.06.2019 18:00:00 15,0 12,4 - - 13 7 - - SSW 1019,4 10 -
16.06.2019 17:00:00 15,2 12,5 - - 13 7 - - SSW 1019,5 35 -
16.06.2019 16:00:00 15,6 12,3 - - 21 11 - - SW 1019,5 10 -
16.06.2019 15:00:00 15,1 12,5 - - 26 14 - - SW 1019,9 10 -
16.06.2019 14:00:00 15,5 12,3 - - 21 11 - - SSW 1019,7 10 -
16.06.2019 13:00:00 16,0 12,7 - - 16 9 - - SSW 1019,5 10 -
16.06.2019 12:00:00 17,1 12,7 - - 21 11 - - SW 1019,1 40 -
16.06.2019 11:00:00 16,1 13,4 - - 24 13 - - SSW 1018,9 10 -
16.06.2019 10:00:00 15,5 13,8 16,0 14,9 21 11 - - SSW 1018,6 10 -
16.06.2019 09:00:00 14,4 13,1 - - 24 13 - - SSW 1018,3 10 -
16.06.2019 08:00:00 13,7 13,2 - - 22 12 - - SSW 1017,7 10 -
16.06.2019 07:00:00 13,3 12,9 - - 22 12 - - SSW 1017,2 10 -
16.06.2019 06:00:00 13,0 12,7 - - 21 11 - - SSW 1016,9 10 -
16.06.2019 05:00:00 13,1 12,4 - - 18 10 - - SSW 1016,7 10 -
16.06.2019 04:00:00 13,1 12,5 - - 21 11 - - SW 1016,6 10 -
16.06.2019 03:00:00 12,8 12,3 - - 18 10 - - SSW 1016,7 10 -
16.06.2019 02:00:00 13,0 12,3 - - 18 10 - - SSW 1016,9 10 -
16.06.2019 01:00:00 13,0 12,1 - - 21 11 - - SW 1016,8 10 -
16.06.2019 00:00:00 12,9 12,3 - - 21 11 - - SW 1016,5 25 -
15.06.2019 23:00:00 12,8 12,6 - - 16 9 - - SSW 1016,2 10 -
15.06.2019 22:00:00 12,4 11,9 - - 15 8 - - SSW 1015,8 10 -
15.06.2019 21:00:00 12,6 12,0 - - 15 8 - - SW 1015,4 35 -
15.06.2019 20:00:00 12,8 12,0 - - 13 7 - - SW 1015,3 30 -
15.06.2019 19:00:00 13,4 11,7 - - 13 7 - - SW 1015,0 10 -
15.06.2019 18:00:00 13,7 11,9 - - 13 7 - - SW 1014,6 40 -
15.06.2019 17:00:00 14,8 12,0 - - 15 8 - - SW 1014,5 10 -
15.06.2019 16:00:00 14,8 12,3 - - 11 6 - - WSW 1014,2 10 -
15.06.2019 15:00:00 13,2 13,1 - - 15 8 - - WSW 1014,1 15 -
15.06.2019 14:00:00 14,1 13,1 - - 16 9 - - S 1013,9 5 -
15.06.2019 13:00:00 14,1 12,9 - - 16 9 - - S 1013,9 10 -
15.06.2019 12:00:00 14,7 12,5 - - 21 11 - - S 1013,5 10 -
15.06.2019 11:00:00 13,7 11,9 - - 21 11 - - S 1013,5 10 -
15.06.2019 10:00:00 12,8 11,9 16,0 14,9 22 12 - - S 1013,3 10 -
15.06.2019 09:00:00 12,8 11,5 - - 22 12 - - S 1013,1 10 -
15.06.2019 08:00:00 13,1 11,6 - - 24 13 - - S 1012,7 25 -
15.06.2019 07:00:00 12,4 10,8 - - 22 12 - - SSW 1012,5 10 -
15.06.2019 06:00:00 12,7 11,0 - - 24 13 - - SSW 1012,3 10 -
15.06.2019 05:00:00 12,2 10,8 - - 22 12 - - SSW 1012,6 10 -
15.06.2019 04:00:00 12,5 10,9 - - 16 9 - - SSW 1012,2 10 -
15.06.2019 03:00:00 12,2 10,6 - - 16 9 - - SSW 1012,5 10 -
15.06.2019 02:00:00 12,9 12,0 - - 11 6 - - S 1012,7 10 -
15.06.2019 01:00:00 12,9 11,6 - - 13 7 - - S 1012,8 10 -
15.06.2019 00:00:00 12,8 11,3 - - 11 6 - - SSE 1013,0 10 -
14.06.2019 23:00:00 12,6 11,1 - - 9 5 - - S 1013,1 10 -
14.06.2019 22:00:00 12,8 11,2 - - 9 5 - - S 1013,0 10 -
14.06.2019 21:00:00 13,1 11,1 - - 9 5 - - SSW 1012,6 10 -
14.06.2019 20:00:00 14,1 10,9 - - 9 5 - - SSW 1012,2 10 -
14.06.2019 19:00:00 14,0 10,5 - - 9 5 - - SW 1012,3 10 -
14.06.2019 18:00:00 14,1 9,9 - - 15 8 - - WSW 1012,1 10 -
14.06.2019 17:00:00 14,5 10,2 - - 15 8 - - SW 1012,2 10 -
14.06.2019 16:00:00 14,6 10,1 - - 16 9 - - SW 1012,3 10 -
14.06.2019 15:00:00 14,7 10,9 - - 18 10 - - SW 1012,5 10 -
14.06.2019 14:00:00 16,0 11,2 - - 21 11 - - WSW 1012,3 10 -
14.06.2019 13:00:00 16,2 10,9 - - 24 13 - - SW 1011,9 10 -
14.06.2019 12:00:00 14,9 11,1 - - 21 11 - - SW 1012,2 10 -
14.06.2019 11:00:00 14,6 12,3 - - 24 13 - - SSW 1012,1 10 -
14.06.2019 10:00:00 12,7 11,6 15,4 14,9 21 11 - - SSW 1011,8 10 -
14.06.2019 09:00:00 13,3 11,6 - - 22 12 - - SSW 1011,3 10 -
14.06.2019 08:00:00 12,7 11,1 - - 22 12 - - SSW 1011,0 10 -
14.06.2019 07:00:00 12,4 11,2 - - 22 12 - - SSW 1010,8 10 -
14.06.2019 06:00:00 12,2 10,9 - - 22 12 - - S 1010,4 35 -
14.06.2019 05:00:00 12,3 10,9 - - 22 12 - - SSW 1010,3 10 -
14.06.2019 04:00:00 12,1 10,8 - - 21 11 - - SW 1010,1 10 -
14.06.2019 03:00:00 12,3 10,7 - - 22 12 - - SSW 1010,4 10 -
14.06.2019 02:00:00 12,1 11,2 - - 22 12 - - SW 1010,5 10 -
14.06.2019 01:00:00 12,8 11,9 - - 13 7 - - SW 1010,7 10 -
14.06.2019 00:00:00 12,5 11,4 - - 16 9 - - SW 1010,9 10 -
13.06.2019 23:00:00 12,4 10,9 - - 21 11 - - WSW 1010,8 10 -
13.06.2019 22:00:00 12,5 10,9 - - 21 11 - - WSW 1010,5 10 -
13.06.2019 21:00:00 12,6 10,9 - - 16 9 - - WSW 1010,2 10 -
13.06.2019 20:00:00 12,9 10,8 - - 22 12 - - WSW 1010,0 30 -
13.06.2019 19:00:00 13,0 10,8 - - 26 14 - - W 1009,6 10 0,0
13.06.2019 18:00:00 13,3 10,9 - - 26 14 - - WSW 1009,4 10 -
13.06.2019 17:00:00 13,6 10,3 - - 29 16 - - WSW 1009,3 10 -
13.06.2019 16:00:00 14,1 10,2 - - 28 15 - - WSW 1009,2 10 -
13.06.2019 15:00:00 14,1 9,8 - - 28 15 - - WSW 1009,1 10 -
13.06.2019 14:00:00 13,8 9,7 - - 28 15 - - WSW 1009,1 10 -
13.06.2019 13:00:00 14,0 10,1 - - 35 19 46 25 WSW 1008,8 10 0,0
13.06.2019 12:00:00 13,8 10,4 - - 29 16 - - SW 1008,6 45 -
13.06.2019 11:00:00 13,2 10,7 - - 29 16 - - SW 1008,6 10 -
13.06.2019 10:00:00 12,4 9,6 15,4 14,9 26 14 - - SW 1008,5 10 -
13.06.2019 09:00:00 12,4 9,0 - - 22 12 - - SW 1008,3 10 -
13.06.2019 08:00:00 12,2 8,9 - - 22 12 - - SW 1008,1 10 -
13.06.2019 07:00:00 11,9 9,3 - - 21 11 - - SW 1008,0 10 0,0
13.06.2019 06:00:00 11,0 8,6 - - 18 10 - - SW 1008,0 10 -
13.06.2019 05:00:00 10,8 8,8 - - 16 9 - - SW 1007,8 10 -
13.06.2019 04:00:00 10,5 8,4 - - 15 8 - - SW 1008,2 10 -
13.06.2019 03:00:00 10,6 9,0 - - 13 7 - - WSW 1008,6 10 -
13.06.2019 02:00:00 10,7 9,5 - - 13 7 - - WSW 1009,1 10 -
13.06.2019 01:00:00 11,1 10,1 - - 11 6 - - W 1009,6 10 0,0
13.06.2019 00:00:00 10,6 10,0 - - 13 7 - - W 1009,9 10 -
12.06.2019 23:00:00 10,5 9,7 - - 5 3 - - - 1009,9 10 -
12.06.2019 22:00:00 11,0 10,2 - - 8 4 - - NW 1009,8 10 -
12.06.2019 21:00:00 11,6 10,5 - - 11 6 - - WNW 1009,4 10 -
12.06.2019 20:00:00 12,8 10,4 - - 8 4 - - NW 1009,3 40 -
12.06.2019 19:00:00 13,8 10,6 - - 16 9 - - N 1009,1 10 -
12.06.2019 18:00:00 13,4 10,9 - - 16 9 - - N 1009,0 10 -
12.06.2019 17:00:00 13,5 11,5 - - 16 9 - - N 1009,5 30 -
12.06.2019 16:00:00 12,3 11,2 - - 16 9 - - N 1009,4 10 -
12.06.2019 15:00:00 11,9 11,1 - - 18 10 - - NNW 1009,4 10 -
12.06.2019 14:00:00 13,5 11,4 - - 18 10 - - N 1009,4 10 -
12.06.2019 13:00:00 13,3 11,7 - - 16 9 - - N 1009,1 10 -
12.06.2019 12:00:00 12,5 11,6 - - 16 9 - - NNE 1009,2 10 -
12.06.2019 11:00:00 12,0 11,2 - - 16 9 - - N 1009,3 10 -
12.06.2019 10:00:00 11,8 10,9 14,9 - 16 9 - - NNE 1009,3 10 -
12.06.2019 09:00:00 11,6 10,9 - - 16 9 - - N 1009,5 10 -
12.06.2019 08:00:00 11,6 10,6 - - 16 9 - - NNE 1009,8 10 -
12.06.2019 07:00:00 11,5 10,4 - - 16 9 - - N 1009,9 10 -
12.06.2019 06:00:00 11,2 10,3 - - 16 9 - - N 1009,7 30 -
12.06.2019 05:00:00 11,0 10,2 - - 16 9 - - NNE 1009,6 10 -
12.06.2019 04:00:00 11,2 10,3 - - 15 8 - - NNE 1010,1 10 -
12.06.2019 03:00:00 11,4 10,6 - - 16 9 - - NNE 1010,7 10 -

tt = temperature
td = dewpoint
tt -20cm = temperature -20cm
tt -100cm = temperature -100cm
ff = wind speed
fx = gusts
dd = wind direction
ppp = reduced air pressure
vv = visibility
rr = precipitation

Next stations